AirNav  
 
 674 users online  

21WI Hudson Hospital & Clinic Heliport
Hudson, Wisconsin, USA

GOING TO HUDSON?


FAA INFORMATION EFFECTIVE 09 NOVEMBER 2017

Location

FAA Identifier: 21WI
Lat/Long: 44-57-44.8000N / 092-43-04.2000W
44-57.746667N / 092-43.070000W
44.9624444 / -92.7178333
(estimated)
Elevation: 858 ft. / 262 m (estimated)
From city: 1 mile NW of HUDSON, WI
Time zone: UTC -6 (UTC -5 during Daylight Saving Time)
Zip code: 54016

Heliport Operations

Heliport use: Private use. Permission required prior to landing
Activation date: 05/2004
Control tower: no
ARTCC: MINNEAPOLIS CENTER
FSS: GREEN BAY FLIGHT SERVICE STATION
Attendance: UNATNDD
Wind indicator: yes
Segmented circle: no
Beacon: white-green-yellow (heliport)
Operates sunset to sunrise.

Heliport Communications

WX AWOS-3 at 21D (6 nm W): 120.075 (651-779-5949)
WX AWOS-3 at RNH (13 nm NE): 120.0 (715-246-3202)
WX ASOS at STP (15 nm W): PHONE 651-298-1410
WX AWOS-3 at SGS (15 nm SW): 119.425 (651-457-8120)

Nearby radio navigation aids

VOR radial/distance  VOR name  Freq  Var
MSPr078/22.4MINNEAPOLIS VOR/DME115.3002E
FGTr039/28.0FARMINGTON VORTAC115.7006E
GEPr106/29.9GOPHER VORTAC117.3006E
FCMr074/31.9FLYING CLOUD VOR/DME117.7001E

 
NDB name  Hdg/Dist  Freq  Var  ID
HOPEY058/10.940003EPPI .--. .--. ..

Heliport Services

Runway Information

Helipad HI

Dimensions: 86 x 56 ft. / 26 x 17 m
Surface: concrete
Latitude: 44-57.746667N
Longitude: 092-43.070000W
Elevation: 858.0 ft.
Traffic pattern: leftleft

Heliport Ownership and Management from official FAA records

Ownership: Privately-owned
Owner: HUDSON HOSPITAL & CLINIC
405 STAGELINE RD
HUDSON, WI 54016
Phone 715-531-6000
Manager: DOUG JOHNSON
405 STAGELINE RD
HUDSON, WI 54016
Phone 715-531-6013

Instrument Procedures

There are no published instrument procedures at 21WI.

Some nearby airports with instrument procedures:

21D - Lake Elmo Airport (6 nm W)
KRNH - New Richmond Regional Airport (13 nm NE)
KSTP - St. Paul Downtown Airport / Holman Field (15 nm W)
KSGS - South St Paul Municipal Airport-Richard E Fleming Field (15 nm SW)
KOEO - L O Simenstad Municipal Airport (21 nm N)
 
Loc | Ops | Rwys | IFR | FBO | Links
Com | Nav | Svcs | Stats | Notes


 
Area around 21WI (Hudson Hospital & Clinic Heliport)
 
Road maps at: MapQuest Bing Google
 
Aerial photo
No photo
 
Sectional chart

 
Airport distance calculator
Flying to Hudson Hospital & Clinic Heliport? Find the distance to fly.

From to 21WI

Sunrise and sunset
Times for 23-Nov-2017
 Local
(UTC-6)
 Zulu
(UTC)
Morning civil twilight06:4812:48
Sunrise07:2013:20
Sunset16:3522:35
Evening civil twilight17:0723:07

Current date and time
Zulu (UTC)  24-Nov-2017 02:10:14
Local (UTC-6)  23-Nov-2017 20:10:14
 
METAR
K21D 
6nm W 
240151Z AUTO 18010KT 10SM CLR 03/M02 A2970 RMK AO2
KRNH 
14nm NE 
240155Z AUTO 16007KT 10SM SCT090 02/M04 A2970 RMK AO2 T00221041
KSTP 
14nm W 
240153Z 14008KT 10SM CLR 04/M02 A2971 RMK AO2 SLP068 T00391022
KSGS 
20nm W 
240153Z AUTO 16004KT 10SM CLR 04/M03 A2970 RMK AO2 T00431027
TAF
KRNH 
14nm NE 
232203Z 2322/2418 18006KT P6SM SCT100 FM241500 20008KT P6SM BKN080
NOTAMs
Click for the latest NOTAMs
NOTAMs are issued by the DoD/FAA and will open in a separate window not controlled by AirNav.

 

 
 

Would you like to see your business listed on this page?

 If your business provides an interesting product or service to pilots, flight crews, aircraft, or users of the Hudson Hospital & Clinic Heliport, you should consider listing it here.  To start the listing process, click on the button below
 
Add a business
 

Other Pages about Hudson Hospital & Clinic Heliport

Update a link
 
Copyright © AirNav, LLC. All rights reserved. Privacy Policy  Contact